Weather History for McAllen, TX

Change the Weather History Date:

Wednesday, May 9, 2012

  Actual Average Record
Temperature  
Mean Temperature 78 °F 81 °F  
Max Temperature 85 °F 90 °F 103 °F (1998)
Min Temperature 71 °F 71 °F 58 °F (1984)
Degree Days  
Heating Degree Days 0 0  
Month to date heating degree days 0 0  
Since 1 July heating degree days 403 579  
Cooling Degree Days 13 16  
Month to date cooling degree days 164 133  
Year to date cooling degree days 1181 864  
Growing Degree Days 28 (Base 50)    
Moisture  
Dew Point 68 °F    
Average Humidity 74    
Maximum Humidity 87    
Minimum Humidity 61    
Precipitation  
Precipitation 0.19 in 0.07 in 0.50 in (1977)
Month to date precipitation 0.19 0.63  
Year to date precipitation 10.26 5.16  
Sea Level Pressure  
Sea Level Pressure 29.92 in    
Wind  
Wind Speed 9 mph (NNE)    
Max Wind Speed 18 mph    
Max Gust Speed 25 mph    
Visibility 9 miles    
Events Rain    
T = Trace of Precipitation, MM = Missing Value Source: NWS Daily Summary

Daily Weather History Graph

Daily Weather History Graph

Search for Another Location

Airport:

Trip Planner

Search our weather history database for the weather conditions in past years. The results will help you decide how hot, cold, wet, or windy it might be!

Date:

Astronomy

May. 09, 2012 Rise Set
Actual Time 6:49 AM CDT 8:09 PM CDT
Civil Twilight 6:24 AM CDT 8:34 PM CDT
Nautical Twilight 5:55 AM CDT 9:03 PM CDT
Astronomical Twilight 5:25 AM CDT 9:34 PM CDT
Moon No Moon Rise 10:12 AM CDT (5/9)
Length of Visible Light 14h 09m
Length of Day
13h 19m
Waning Gibbous, 82% of the Moon is Illuminated
May 9
Waning Gibbous
May 12
Last Quarter
May 20
New
May 28
First Quarter
Jun 4
Full

Hourly Weather History & Observations

Time (CDT) Temp. Heat Index Dew Point Humidity Pressure Visibility Wind Dir Wind Speed Gust Speed Precip Events Conditions
12:30 AM 75.2 °F - 69.8 °F 83% 29.91 in 10.0 mi North 8.1 mph - N/A   Overcast
12:53 AM 73.9 °F - 70.0 °F 87% 29.91 in 10.0 mi North 9.2 mph - N/A   Overcast
1:53 AM 73.0 °F - 66.9 °F 81% 29.93 in 10.0 mi North 9.2 mph - N/A   Overcast
2:19 AM 73.4 °F - 66.2 °F 78% 29.94 in 10.0 mi North 10.4 mph - N/A   Mostly Cloudy
2:53 AM 73.0 °F - 66.9 °F 81% 29.92 in 10.0 mi North 11.5 mph - N/A   Mostly Cloudy
3:53 AM 72.0 °F - 66.9 °F 84% 29.92 in 10.0 mi North 10.4 mph - 0.00 in Rain Light Rain
4:16 AM 71.6 °F - 66.2 °F 83% 29.92 in 7.0 mi North 12.7 mph - 0.05 in Rain Rain
4:26 AM 71.6 °F - 66.2 °F 83% 29.92 in 10.0 mi North 12.7 mph 19.6 mph 0.05 in Rain Light Rain
4:53 AM 71.1 °F - 66.9 °F 87% 29.91 in 10.0 mi North 11.5 mph - 0.05 in   Overcast
5:53 AM 71.1 °F - 66.9 °F 87% 29.91 in 10.0 mi North 13.8 mph - N/A   Scattered Clouds
6:10 AM 71.6 °F - 66.2 °F 83% 29.91 in 10.0 mi NNE 12.7 mph - N/A   Mostly Cloudy
6:21 AM 71.6 °F - 66.2 °F 83% 29.92 in 10.0 mi NNE 12.7 mph - N/A   Overcast
6:53 AM 71.1 °F - 66.9 °F 87% 29.92 in 10.0 mi North 13.8 mph - N/A   Overcast
7:41 AM 71.6 °F - 66.2 °F 83% 29.95 in 10.0 mi NNE 16.1 mph 23.0 mph N/A   Overcast
7:53 AM 72.0 °F - 66.0 °F 81% 29.96 in 10.0 mi NNE 13.8 mph 25.3 mph N/A   Overcast
8:53 AM 73.0 °F - 66.0 °F 79% 29.97 in 10.0 mi NNE 12.7 mph - N/A   Overcast
9:53 AM 73.9 °F - 66.0 °F 76% 29.98 in 10.0 mi NNE 4.6 mph - N/A   Overcast
10:53 AM 73.0 °F - 68.0 °F 84% 30.00 in 8.0 mi NNE 6.9 mph - 0.00 in Rain Light Rain
11:53 AM 75.0 °F - 69.1 °F 82% 29.99 in 10.0 mi North 6.9 mph - 0.00 in   Overcast
12:06 PM 75.2 °F - 68.0 °F 78% 29.98 in 10.0 mi North 8.1 mph - N/A   Overcast
12:33 PM 77.0 °F - 68.0 °F 74% 29.97 in 10.0 mi North 9.2 mph - N/A   Overcast
12:53 PM 79.0 °F - 68.0 °F 69% 29.96 in 10.0 mi North 9.2 mph - N/A   Mostly Cloudy
1:53 PM 84.0 °F 88.4 °F 70.0 °F 63% 29.93 in 10.0 mi NNE 6.9 mph - N/A   Mostly Cloudy
2:09 PM 84.2 °F 88.4 °F 69.8 °F 62% 29.93 in 10.0 mi NNE 5.8 mph - N/A   Mostly Cloudy
2:45 PM 84.2 °F 88.4 °F 69.8 °F 62% 29.92 in 10.0 mi Variable 5.8 mph - N/A   Mostly Cloudy
2:53 PM 84.9 °F 89.4 °F 70.0 °F 61% 29.91 in 10.0 mi NNE 9.2 mph - N/A   Mostly Cloudy
3:06 PM 84.2 °F 88.4 °F 69.8 °F 62% 29.91 in 10.0 mi NNE 6.9 mph - N/A   Overcast
3:53 PM 80.1 °F 83.8 °F 72.0 °F 76% 29.88 in 8.0 mi NE 6.9 mph - 0.03 in Rain Rain
4:53 PM 84.9 °F 90.1 °F 71.1 °F 63% 29.86 in 10.0 mi ENE 9.2 mph - 0.00 in   Scattered Clouds
5:53 PM 82.9 °F 87.0 °F 70.0 °F 65% 29.85 in 10.0 mi ENE 13.8 mph - N/A   Mostly Cloudy
6:34 PM 78.8 °F - 73.4 °F 83% 29.85 in 7.0 mi SE 15.0 mph - 0.01 in Rain Rain
6:41 PM 77.0 °F - 73.4 °F 89% 29.86 in 5.0 mi SE 12.7 mph - 0.02 in Rain Rain
6:53 PM 77.0 °F - 73.0 °F 88% 29.86 in 3.0 mi SE 10.4 mph - 0.09 in Rain Rain
7:53 PM 75.9 °F - 71.1 °F 85% 29.85 in 10.0 mi SE 9.2 mph - 0.01 in Rain Light Rain
8:53 PM 75.0 °F - 70.0 °F 84% 29.88 in 10.0 mi Calm Calm - 0.01 in   Overcast
9:53 PM 75.9 °F - 71.1 °F 85% 29.90 in 10.0 mi North 9.2 mph - N/A   Mostly Cloudy
10:45 PM 71.6 °F - 64.4 °F 78% 29.89 in 10.0 mi ENE 8.1 mph - N/A   Scattered Clouds
10:53 PM 72.0 °F - 64.9 °F 78% 29.89 in 10.0 mi ENE 6.9 mph - N/A   Partly Cloudy
11:53 PM 73.0 °F - 66.0 °F 79% 29.88 in 10.0 mi North 5.8 mph - N/A   Clear